• In Hungary
  • List of Countries
  • For 7 days
  • Water Temperature
  • Satellite Maps
  • Weather Map
  • News
  • Weather Widgets
  • user-avatar
    Login

    Hourly Weather Eugene

    Today, 20 October, Friday

    Time Temperature Precipitation Wind Pressure Humidity
    00:00 +9°C° 0.5 mm 2 mps 742 mmHg 95%
    01:00 +8°C° 0.5 mm 2 mps 742 mmHg 95%
    02:00 +8°C° 0.9 mm 2 mps 743 mmHg 95%
    03:00 +8°C° 0.9 mm 2 mps 743 mmHg 94%
    04:00 +8°C° 0.9 mm 2 mps 743 mmHg 94%
    05:00 +8°C° 0.9 mm 2 mps 744 mmHg 94%
    06:00 +8°C° 0.9 mm 3 mps 745 mmHg 94%
    07:00 +8°C° 0.9 mm 3 mps 745 mmHg 94%
    08:00 +8°C° 0.9 mm 3 mps 746 mmHg 93%
    09:00 +9°C° 0.9 mm 3 mps 746 mmHg 91%
    10:00 +8°C° 0.9 mm 4 mps 747 mmHg 90%
    11:00 +8°C° 0.9 mm 4 mps 747 mmHg 89%
    12:00 +10°C° 0.9 mm 4 mps 748 mmHg 87%
    13:00 +10°C° 0.9 mm 4 mps 748 mmHg 86%
    14:00 +10°C° 0.5 mm 3 mps 749 mmHg 85%
    15:00 +10°C° 0.5 mm 3 mps 749 mmHg 85%
    16:00 +10°C° 0.5 mm 3 mps 750 mmHg 84%
    17:00 +9°C° 0.2 mm 2 mps 750 mmHg 87%
    18:00 +8°C° 0.2 mm 2 mps 751 mmHg 91%
    19:00 +7°C° 0.2 mm 2 mps 751 mmHg 94%
    20:00 +7°C° 0 mm 2 mps 751 mmHg 94%
    21:00 +7°C° 0 mm 2 mps 751 mmHg 94%
    22:00 +6°C° 0 mm 2 mps 751 mmHg 94%
    23:00 +6°C° 0.4 mm 2 mps 751 mmHg 94%

    Tomorrow, 21 October, Saturday

    Time Temperature Precipitation Wind Pressure Humidity
    00:00 +7°C° 0.4 mm 2 mps 751 mmHg 93%
    01:00 +7°C° 0.4 mm 2 mps 750 mmHg 93%
    02:00 +7°C° 1.4 mm 2 mps 750 mmHg 93%
    03:00 +7°C° 1.4 mm 3 mps 749 mmHg 92%
    04:00 +7°C° 1.4 mm 3 mps 748 mmHg 92%
    05:00 +7°C° 0.9 mm 3 mps 748 mmHg 92%
    06:00 +8°C° 0.9 mm 3 mps 748 mmHg 93%
    07:00 +8°C° 0.9 mm 3 mps 747 mmHg 93%
    08:00 +9°C° 1.9 mm 3 mps 748 mmHg 93%
    09:00 +10°C° 1.9 mm 4 mps 748 mmHg 94%
    10:00 +10°C° 1.9 mm 4 mps 748 mmHg 94%
    11:00 +11°C° 4 mm 4 mps 748 mmHg 95%
    12:00 +11°C° 4 mm 4 mps 748 mmHg 95%
    13:00 +12°C° 4 mm 4 mps 749 mmHg 96%
    14:00 +12°C° 2.2 mm 4 mps 749 mmHg 95%
    15:00 +12°C° 2.2 mm 4 mps 749 mmHg 95%
    16:00 +13°C° 2.2 mm 4 mps 749 mmHg 95%
    17:00 +13°C° 0.4 mm 4 mps 750 mmHg 95%
    18:00 +13°C° 0.4 mm 4 mps 750 mmHg 95%
    19:00 +13°C° 0.4 mm 4 mps 750 mmHg 95%
    20:00 +13°C° 0.4 mm 4 mps 751 mmHg 94%
    21:00 +14°C° 0.4 mm 4 mps 751 mmHg 94%
    22:00 +14°C° 0.4 mm 4 mps 751 mmHg 94%
    23:00 +14°C° 1.2 mm 4 mps 751 mmHg 94%

    Day after tomorrow, 22 October, Sunday

    Time Temperature Precipitation Wind Pressure Humidity
    00:00 +14°C° 1.2 mm 4 mps 751 mmHg 94%
    01:00 +14°C° 1.2 mm 4 mps 752 mmHg 94%
    02:00 +14°C° 2.7 mm 4 mps 752 mmHg 95%
    03:00 +14°C° 2.7 mm 4 mps 753 mmHg 95%
    04:00 +14°C° 2.7 mm 4 mps 753 mmHg 95%
    05:00 +14°C° 3.3 mm 4 mps 754 mmHg 95%
    06:00 +14°C° 3.3 mm 3 mps 754 mmHg 96%
    07:00 +14°C° 3.3 mm 3 mps 755 mmHg 96%
    08:00 +15°C° 2.5 mm 2 mps 756 mmHg 97%
    09:00 +14°C° 2.5 mm 2 mps 756 mmHg 97%
    10:00 +14°C° 2.5 mm 2 mps 757 mmHg 97%
    11:00 +14°C° 2 mm 1 mps 757 mmHg 97%
    12:00 +14°C° 2 mm 1 mps 758 mmHg 97%
    13:00 +15°C° 2 mm 1 mps 758 mmHg 97%
    14:00 +15°C° 1.3 mm 1 mps 758 mmHg 97%
    15:00 +15°C° 1.3 mm 1 mps 759 mmHg 97%
    16:00 +14°C° 1.3 mm 1 mps 759 mmHg 97%
    17:00 +14°C° 0.4 mm 1 mps 760 mmHg 97%
    18:00 +14°C° 0.4 mm 1 mps 760 mmHg 97%
    19:00 +14°C° 0.4 mm 1 mps 761 mmHg 97%
    20:00 +14°C° 0 mm 1 mps 761 mmHg 97%
    21:00 +14°C° 0 mm 1 mps 761 mmHg 97%
    22:00 +14°C° 0 mm 1 mps 762 mmHg 97%
    23:00 +14°C° 0 mm 1 mps 762 mmHg 97%

    23 October, Monday

    Time Temperature Precipitation Wind Pressure Humidity
    00:00 +13°C° 0 mm 0 mps 762 mmHg 97%
    01:00 +13°C° 0 mm 0 mps 762 mmHg 97%
    02:00 +13°C° 0 mm 0 mps 762 mmHg 97%
    03:00 +13°C° 0 mm 1 mps 762 mmHg 97%
    04:00 +13°C° 0 mm 1 mps 762 mmHg 97%
    05:00 +13°C° 0 mm 1 mps 763 mmHg 97%
    06:00 +13°C° 0 mm 1 mps 763 mmHg 97%
    07:00 +13°C° 0 mm 1 mps 763 mmHg 97%
    08:00 +14°C° 0 mm 1 mps 763 mmHg 93%
    09:00 +16°C° 0 mm 1 mps 763 mmHg 89%
    10:00 +19°C° 0 mm 1 mps 763 mmHg 85%
    11:00 +20°C° 0 mm 1 mps 762 mmHg 79%
    12:00 +22°C° 0 mm 1 mps 762 mmHg 73%
    13:00 +23°C° 0 mm 1 mps 761 mmHg 66%
    14:00 +23°C° 0 mm 2 mps 761 mmHg 70%
    15:00 +21°C° 0 mm 2 mps 761 mmHg 73%
    16:00 +21°C° 0 mm 2 mps 761 mmHg 76%
    17:00 +19°C° 0 mm 2 mps 761 mmHg 82%
    18:00 +18°C° 0 mm 1 mps 761 mmHg 88%
    19:00 +15°C° 0 mm 1 mps 761 mmHg 95%
    20:00 +14°C° 0 mm 1 mps 761 mmHg 94%
    21:00 +14°C° 0 mm 1 mps 761 mmHg 93%
    22:00 +14°C° 0 mm 1 mps 761 mmHg 92%
    23:00 +13°C° 0 mm 1 mps 761 mmHg 91%

    24 October, Tuesday

    Time Temperature Precipitation Wind Pressure Humidity
    00:00 +13°C° 0 mm 1 mps 760 mmHg 91%
    01:00 +13°C° 0 mm 1 mps 760 mmHg 90%
    02:00 +13°C° 0 mm 1 mps 760 mmHg 91%
    03:00 +12°C° 0 mm 1 mps 760 mmHg 91%
    04:00 +12°C° 0 mm 1 mps 759 mmHg 91%
    05:00 +12°C° 0 mm 1 mps 759 mmHg 91%
    06:00 +12°C° 0 mm 1 mps 759 mmHg 91%
    07:00 +12°C° 0 mm 1 mps 759 mmHg 91%
    08:00 +14°C° 0 mm 1 mps 758 mmHg 82%
    09:00 +18°C° 0 mm 1 mps 758 mmHg 73%
    10:00 +21°C° 0 mm 1 mps 757 mmHg 64%
    11:00 +22°C° 0 mm 1 mps 757 mmHg 60%
    12:00 +24°C° 0 mm 1 mps 756 mmHg 57%
    13:00 +26°C° 0 mm 1 mps 755 mmHg 54%
    14:00 +25°C° 0 mm 1 mps 755 mmHg 59%
    15:00 +24°C° 0 mm 1 mps 754 mmHg 65%
    16:00 +23°C° 0 mm 1 mps 754 mmHg 70%
    17:00 +21°C° 0 mm 1 mps 754 mmHg 77%
    18:00 +19°C° 0 mm 1 mps 754 mmHg 83%
    19:00 +16°C° 0 mm 1 mps 754 mmHg 90%
    20:00 +15°C° 0 mm 1 mps 754 mmHg 89%
    21:00 +14°C° 0 mm 0 mps 754 mmHg 88%
    22:00 +14°C° 0 mm 0 mps 753 mmHg 87%
    23:00 +14°C° 0 mm 0 mps 753 mmHg 87%

    25 October, Wednesday

    Time Temperature Precipitation Wind Pressure Humidity
    00:00 +13°C° 0 mm 0 mps 753 mmHg 87%
    01:00 +13°C° 0 mm 0 mps 753 mmHg 87%
    02:00 +13°C° 0 mm 0 mps 753 mmHg 89%
    03:00 +12°C° 0 mm 0 mps 753 mmHg 91%
    04:00 +12°C° 0 mm 0 mps 753 mmHg 93%
    05:00 +12°C° 0 mm 1 mps 753 mmHg 94%
    06:00 +12°C° 0 mm 1 mps 753 mmHg 94%
    07:00 +12°C° 0 mm 1 mps 753 mmHg 95%
    08:00 +14°C° 0 mm 1 mps 753 mmHg 87%
    09:00 +16°C° 0 mm 1 mps 753 mmHg 79%
    10:00 +18°C° 0 mm 2 mps 753 mmHg 71%
    11:00 +18°C° 0.2 mm 1 mps 753 mmHg 77%
    12:00 +16°C° 0.2 mm 1 mps 753 mmHg 82%
    13:00 +16°C° 0.2 mm 1 mps 753 mmHg 88%
    14:00 +15°C° 0.1 mm 1 mps 753 mmHg 88%
    15:00 +15°C° 0.1 mm 1 mps 753 mmHg 89%
    16:00 +15°C° 0.1 mm 2 mps 753 mmHg 89%
    17:00 +14°C° 0 mm 2 mps 753 mmHg 91%
    18:00 +12°C° 0 mm 1 mps 754 mmHg 93%
    19:00 +11°C° 0 mm 1 mps 754 mmHg 95%
    20:00 +10°C° 0 mm 1 mps 754 mmHg 95%
    21:00 +10°C° 0 mm 1 mps 755 mmHg 95%
    22:00 +9°C° 0 mm 1 mps 755 mmHg 96%
    23:00 +9°C° 0 mm 1 mps 755 mmHg 96%
    Show more